Weather Roundup
Issued by NWS Springfield, MO

Home | Current Version | Previous Version | Text Only | Print | Product List | Glossary On
Versions: 1 2 3 4 5 6 7 8 9 10 11 12 13 14 15 16 17 18 19 20 21 22 23 24 25 26 27 28 29 30 31 32 33 34 35 36 37 38 39 40 41 42 43 44 45 46 47 48 49 50
716
NZUS99 KSGF 182307
HRRSGF

HOURLY WEATHER
NATIONAL WEATHER SERVICE SPRINGFIELD MO
500 PM CST MON DEC 18 2017

......SGF CWA......

CITY           SKY/WX    TMP DP  RH WIND       PRES   REMARKS
SPRINGFIELD    CLEAR     46  40  79 S7        30.06S
JOPLIN         CLEAR     47  42  83 S7        30.07S
WEST PLAINS    CLEAR     49  39  68 SW3       30.09S
ROLLA          CLEAR     47  39  74 SW8       30.04S
OSAGE BEACH    CLEAR     48  39  71 SW7       30.06R
BRANSON        MOCLDY    54  39  58 CALM      30.08F

......SURROUNDING SGF CWA......

CITY           SKY/WX    TMP DP  RH WIND       PRES   REMARKS
CHANUTE        CLEAR     49  42  77 S12       30.03S
PARSONS        CLEAR     49  43  80 S6        30.06S
COFFEYVILLE    CLEAR     49  43  80 S10       30.06S
EMPORIA        CLEAR     50  35  56 SW10      29.98F
GROVE OK       CLEAR     48  43  81 S5        30.09S
ROGERS AR      CLEAR     50  42  74 SW3       30.08F
SILOAM SPRINGS CLEAR     47  42  83 SW6       30.09F
HARRISON AR    PTCLDY    58  35  42 CALM      30.08S
NEAR YELLVILLE CLEAR     58  40  51 E3        30.08F

......KANSAS AND MISSOURI......

CITY           SKY/WX    TMP DP  RH WIND       PRES   REMARKS
KANSAS CTY INT CLEAR     48  35  60 SW8       29.96F
DOWNTOWN KC    CLEAR     50  36  58 SW10      29.96F
COLUMBIA       CLEAR     45  37  73 SW10      30.01F
SEDALIA        CLEAR     49  40  71 SW8       30.03R
ST JOSEPH      CLEAR     49  36  61 SW9       29.95S
ST LOUIS       PTCLDY    51  40  65 SW9       30.03R
SPIRIT OF STL  CLEAR     49  39  68 SW7       30.03R
KIRKSVILLE     CLEAR     48  36  63 SW12G17   29.95R
WICHITA        CLEAR     53  39  59 S13       29.99S
TOPEKA         CLEAR     53  35  50 S8        29.95F
OLATHE         CLEAR     48  38  68 S8        29.98F

......TENNESSEE......

CITY           SKY/WX    TMP DP  RH WIND       PRES   REMARKS
MEMPHIS        CLOUDY    47  43  86 SW7       30.17F
NASHVILLE      PTCLDY    51  44  77 W3        30.15R

......ARKANSAS.......

CITY           SKY/WX    TMP DP  RH WIND       PRES   REMARKS
FAYETTEVILLE   CLOUDY    52  41  66 SW9       30.08F
FT SMITH       CLOUDY    52  45  77 CALM      30.13S
LITTLE ROCK    CLOUDY    50  46  86 S8        30.17R

......OKLAHOMA.......

CITY           SKY/WX    TMP DP  RH WIND       PRES   REMARKS
TULSA          MOCLDY    52  44  74 S9        30.08F
PONCA CITY     CLEAR     53  40  61 S9        30.03S
MCALESTER      CLOUDY    51  46  83 S7        30.12F
OKLAHOMA CITY  PTCLDY    49  43  80 SE9       30.06F

......IOWA............

CITY           SKY/WX    TMP DP  RH WIND       PRES   REMARKS
DES MOINES     PTCLDY    47  30  51 S10       29.84F
QUAD CITIES    CLEAR     47  35  63 SW9       29.85S

......ILLINOIS........

CITY           SKY/WX    TMP DP  RH WIND       PRES   REMARKS
QUINCY         CLEAR     46  37  71 SW12      29.95S
CHICAGO        PTCLDY    42  34  73 SW9       29.86S




USA.gov is the U.S. government's official web portal to all federal, state and local government web resources and services.